Location: Newark
(45.8833°N, 13.5000°E)
Time: 14:09:32
(UTC+00:00)

ISS - Visible Passes

Search period start: 23 July 2019 00:00
Search period end: 02 August 2019 00:00
Orbit: 409 x 418 km, 51.6° (Epoch: 23 July)

Date Brightness Start Highest point End Pass type
(mag) Time Alt. Az. Time Alt. Az. Time Alt. Az.
23 Jul -1.9 20:11:39 10° WNW 20:14:42 32° N 20:17:44 10° ENE visible
23 Jul -2.1 21:48:51 10° NW 21:51:56 34° N 21:53:11 25° NE visible
23 Jul -1.1 23:25:31 10° WNW 23:25:59 13° WNW 23:25:59 13° WNW visible
24 Jul -2.2 19:22:05 10° W 19:25:15 37° NNW 19:28:24 10° NE visible
24 Jul -1.9 20:59:28 10° WNW 21:02:29 30° N 21:05:15 11° ENE visible
24 Jul -2.1 22:36:12 10° WNW 22:38:03 30° NW 22:38:03 30° NW visible
25 Jul -1.8 20:10:01 10° WNW 20:13:00 29° N 20:15:58 10° ENE visible
25 Jul -3.0 21:46:53 10° WNW 21:50:09 50° NNE 21:50:09 50° NNE visible
26 Jul -1.9 19:20:30 10° WNW 19:23:30 30° N 19:26:30 10° ENE visible
26 Jul -2.5 20:57:33 10° NW 21:00:43 38° NNE 21:02:19 23° ENE visible
26 Jul -1.3 22:34:15 10° WNW 22:35:07 17° WNW 22:35:07 17° WNW visible
27 Jul -2.2 20:08:11 10° WNW 20:11:15 32° N 20:14:18 10° ENE visible
27 Jul -2.9 21:44:51 10° WNW 21:47:18 46° WNW 21:47:18 46° WNW visible
28 Jul -2.0 19:18:44 10° WNW 19:21:44 29° N 19:24:44 10° ENE visible
28 Jul -3.5 20:55:29 10° WNW 20:58:49 64° NNE 20:59:31 48° E visible
29 Jul -2.9 20:06:08 10° WNW 20:09:23 46° NNE 20:11:45 17° E visible
29 Jul -1.9 21:42:55 10° WNW 21:44:34 24° W 21:44:34 24° W visible
30 Jul -2.5 19:16:45 10° NW 19:19:54 36° NNE 19:23:02 10° E visible
30 Jul -3.8 20:53:25 10° WNW 20:56:44 61° SSW 20:56:49 61° SSW visible
31 Jul -3.8 20:04:00 10° WNW 20:07:22 85° NNE 20:09:07 26° ESE visible
31 Jul -1.0 21:41:30 10° W 21:41:56 12° W 21:41:56 12° W visible
01 Aug -3.3 19:14:37 10° WNW 19:17:56 58° NNE 19:21:14 10° ESE visible
01 Aug -2.3 20:51:35 10° W 20:54:15 26° SW 20:54:15 26° SW visible
